Theta_e
329 328 324 320 310 310 303 300 306 304 301 303 303 299 296 298 297 293 304 306 307 308 307 310 321 325 329 332 334 337 339 343 346 348 349 348 352 351 350 350 349 352 353 353 353 353 352 351 351
324 322 321 316 306 302 299 302 303 305 305 307 304 303 299 295 300 302 300 303 306 306 306 307 318 321 325 329 331 333 336 338 341 344 347 347 348 346 345 346 347 350 352 352 353 351 351 350 350
323 321 315 310 307 303 299 300 303 306 309 308 302 303 300 296 301 300 302 303 306 304 305 306 315 317 321 324 327 329 331 333 336 338 342 345 346 347 345 343 345 346 346 347 349 351 351 349 348
319 318 315 305 301 304 304 306 308 308 309 312 309 301 302 303 301 304 306 304 304 304 305 308 313 315 317 320 323 326 327 329 332 334 336 341 345 344 344 341 342 344 340 343 344 347 349 347 346
322 314 304 300 299 301 303 305 307 304 304 306 308 301 299 302 304 305 303 306 306 305 307 305 312 313 314 316 319 322 324 325 328 330 332 336 340 344 344 342 343 343 343 344 345 346 345 346 345
312 312 301 296 297 300 302 304 304 302 303 303 303 300 299 305 304 306 307 307 307 307 306 308 310 313 313 313 316 317 321 322 324 327 328 330 334 338 340 342 343 344 344 344 343 344 344 344 344
309 305 300 299 298 297 299 303 301 301 301 299 304 299 301 302 305 306 307 308 308 308 308 309 309 309 313 311 313 314 317 318 322 323 325 327 329 334 338 339 342 343 342 342 342 342 342 343 343
310 306 300 300 297 295 299 300 301 300 298 303 304 298 297 301 305 307 307 307 306 307 307 307 309 308 310 311 312 313 313 315 318 320 322 325 327 329 334 336 338 340 343 341 341 342 341 342 341
312 301 297 297 297 295 300 298 301 302 299 300 300 299 300 302 304 304 304 304 304 304 305 306 306 308 310 309 309 311 312 312 313 316 317 320 324 323 325 332 334 339 342 341 342 341 340 340 338
306 300 297 300 300 298 299 298 297 298 297 296 297 300 301 302 302 301 300 300 300 301 303 304 305 305 307 305 309 311 311 308 308 310 311 314 320 322 322 328 331 339 341 341 340 340 339 338 339
304 297 300 300 300 301 298 296 298 296 294 296 295 297 299 299 300 299 299 300 299 301 302 302 304 305 305 304 306 307 309 310 309 309 310 309 312 319 319 321 323 329 341 338 338 337 336 338 338
298 300 300 299 298 298 295 297 294 296 295 297 297 298 298 298 298 298 298 299 299 300 300 302 302 303 304 304 304 305 306 308 309 308 309 308 307 311 315 316 317 323 332 340 338 338 336 339 338
298 297 298 297 297 296 296 294 294 294 296 297 297 297 297 297 298 299 299 300 299 299 300 301 302 303 303 303 303 304 306 306 309 309 308 308 305 307 309 314 314 317 325 333 337 335 335 339 336
298 297 296 296 295 295 294 293 294 294 296 295 295 296 297 297 297 298 298 298 299 299 299 301 301 303 303 302 304 303 305 306 307 309 308 309 307 305 306 308 312 314 316 320 327 336 341 336 334
297 293 295 294 294 293 294 291 291 295 295 294 295 296 296 297 298 298 298 298 299 299 300 300 301 302 302 302 302 302 303 305 306 307 309 308 308 306 304 306 309 310 311 315 322 335 338 336 333
295 296 293 293 293 293 293 290 293 295 294 294 295 295 296 297 297 299 299 299 299 299 299 300 300 301 301 301 301 301 302 303 305 306 307 307 307 305 304 304 307 309 310 313 319 330 335 333 332
296 292 291 291 293 292 292 291 294 295 294 293 295 296 296 297 298 299 300 299 299 299 299 299 300 299 300 301 301 301 302 302 304 305 306 306 306 306 304 304 305 308 309 310 315 324 333 332 329
290 291 293 291 293 292 292 292 294 295 294 294 295 295 295 296 297 299 299 300 299 299 299 299 299 300 300 299 299 299 300 301 302 304 305 306 304 306 305 305 304 306 307 307 310 314 331 327 326
293 292 291 293 293 290 291 292 294 295 294 294 294 294 295 295 298 299 299 300 299 299 299 298 298 299 298 297 296 297 297 298 300 303 305 306 304 305 305 304 303 304 304 305 308 310 321 326 324
293 292 291 292 291 290 293 292 295 295 294 294 294 294 295 295 297 298 298 298 299 298 298 298 298 298 298 296 297 297 297 298 299 302 304 305 304 303 304 304 304 303 304 305 306 308 317 326 326
293 290 289 288 291 293 292 291 291 293 293 294 295 296 296 295 295 296 296 298 298 297 298 297 297 298 298 298 297 297 298 298 298 299 301 303 304 303 304 303 304 305 305 304 305 306 310 321 327
292 291 289 288 290 288 291 285 291 291 292 294 295 295 295 295 296 296 295 296 297 297 298 297 298 297 297 298 296 296 294 294 296 298 301 302 304 304 303 304 305 304 303 303 303 305 306 312 320
290 290 289 289 290 290 290 288 291 292 292 292 294 295 295 295 295 295 295 295 296 297 297 297 297 296 297 297 297 295 294 295 297 298 300 302 304 303 302 304 304 302 302 302 302 303 304 309 314
293 293 293 291 290 287 288 287 292 291 291 292 293 294 294 295 295 295 296 296 296 296 297 297 297 296 296 296 297 296 295 295 295 296 296 299 301 301 302 303 303 303 301 301 301 302 303 307 310
295 294 291 287 287 287 287 286 292 293 293 292 292 294 294 295 295 294 294 294 294 295 296 296 295 294 295 295 295 296 296 295 295 296 295 295 297 298 300 302 303 303 302 301 301 300 304 305 306
292 291 287 281 285 287 288 287 292 294 295 295 296 296 295 295 295 294 294 294 294 295 295 296 294 293 294 295 295 297 297 295 296 296 296 296 296 298 301 301 301 302 303 301 300 300 302 305 307
291 290 290 287 289 285 293 292 295 295 296 296 295 294 293 294 294 294 294 295 295 295 295 296 295 294 295 295 295 296 296 295 296 297 298 297 299 299 300 301 300 301 302 300 301 300 302 303 307
291 291 288 292 283 281 289 290 291 292 293 294 294 293 293 294 294 294 294 294 294 295 295 296 296 295 295 295 295 295 296 296 297 298 297 297 298 299 299 300 299 300 300 300 301 300 302 305 306
291 292 290 289 288 284 284 291 297 293 294 294 295 295 293 293 294 294 294 294 294 295 296 295 295 295 295 295 295 295 296 297 298 297 298 298 299 299 298 298 298 298 298 300 300 301 301 303 304
292 291 291 287 287 289 285 287 299 296 296 297 296 295 294 294 294 294 294 294 293 294 295 294 294 295 294 295 295 294 295 297 297 296 297 299 297 298 297 298 298 297 297 298 299 300 300 299 300
Wind_Speed
17 15 8 8 4 11 15 9 7 7 6 9 10 15 19 12 6 4 11 13 16 13 18 20 30 29 28 29 29 28 28 28 24 22 4 5 6 7 6 6 8 10 10 12 13 14 14 15 14
13 8 7 5 4 14 8 6 12 11 12 12 9 7 9 7 7 3 8 16 16 15 14 18 26 28 27 28 28 28 28 27 26 23 22 7 5 7 10 3 6 8 9 11 12 13 15 14 13
12 9 3 5 13 15 9 5 8 11 10 6 7 9 4 4 7 5 6 11 10 9 10 12 25 28 27 27 28 28 27 26 25 25 22 19 9 6 13 7 4 8 7 3 8 13 15 13 13
5 7 8 15 22 20 17 9 6 11 11 11 11 12 10 7 4 9 8 7 11 8 11 14 22 26 27 27 27 27 27 26 25 24 23 20 19 4 14 8 5 11 12 4 2 6 12 12 12
1 8 14 18 22 19 16 14 13 11 10 12 4 9 7 6 5 4 8 11 12 11 10 14 25 25 26 26 27 26 27 28 26 26 24 23 20 18 12 14 17 17 16 15 13 12 13 12 11
4 9 15 16 20 17 15 12 12 15 13 7 13 12 11 9 8 6 6 8 10 14 14 15 20 26 20 24 24 26 26 27 27 26 26 23 22 17 16 4 11 15 16 14 11 11 13 14 10
10 13 18 19 17 15 9 8 10 11 11 12 4 11 9 11 7 4 5 9 12 14 14 14 16 17 23 15 22 24 26 26 25 25 25 23 20 19 14 13 9 4 15 17 11 13 14 15 12
10 13 18 15 13 14 8 11 12 12 12 6 10 5 9 8 7 7 8 9 11 13 15 16 16 17 17 12 18 21 21 25 26 25 25 21 19 20 17 13 14 14 12 16 16 18 13 13 11
4 12 12 9 11 12 6 12 11 10 13 14 10 11 7 5 6 8 9 12 12 13 15 15 17 17 17 16 17 11 16 21 21 20 25 18 12 14 16 15 15 15 10 12 14 12 12 11 10
10 12 13 13 14 13 8 12 6 4 8 8 9 7 3 4 8 10 11 11 14 15 17 16 16 18 16 14 16 14 7 9 10 13 15 13 13 12 14 14 16 14 6 9 10 11 12 12 5
20 18 16 16 11 11 11 9 1 3 7 6 5 5 5 6 8 10 11 11 12 13 13 17 16 16 17 15 11 9 9 8 7 14 11 12 11 9 10 7 8 8 4 7 10 10 10 12 6
22 17 16 13 7 6 9 7 7 5 9 5 4 5 6 9 9 9 11 11 13 12 14 16 16 16 16 12 11 12 10 10 8 9 12 9 7 10 10 7 9 8 7 7 8 9 10 12 8
18 15 14 11 9 9 2 6 6 6 4 2 3 3 6 7 9 10 9 10 11 11 12 14 15 15 15 14 12 12 11 10 12 10 9 9 8 10 10 9 7 7 7 9 8 5 7 8 8
13 16 13 10 8 6 3 7 5 6 3 3 4 5 5 7 8 9 9 10 8 11 10 12 14 15 16 13 15 12 10 11 10 9 11 13 10 8 10 10 8 7 7 9 8 6 7 7 6
16 15 11 7 5 4 4 9 2 6 5 5 6 7 6 7 8 9 7 8 10 9 9 12 12 14 16 15 14 11 10 11 9 9 9 13 12 10 10 9 9 7 8 10 8 8 7 9 7
7 7 6 7 2 6 7 12 7 5 6 7 6 8 9 10 10 9 8 9 11 10 8 11 10 13 16 16 12 10 10 11 9 8 7 12 11 11 9 8 8 9 7 7 7 6 8 8 9
6 8 6 10 1 2 4 7 7 4 5 7 9 10 10 11 12 11 11 9 10 10 9 9 10 12 14 17 12 12 12 10 9 8 8 10 13 9 9 8 8 9 7 6 7 7 2 6 7
11 11 4 6 6 5 9 9 2 5 8 7 10 11 12 13 14 13 11 10 10 12 11 9 9 12 12 12 11 10 10 10 9 8 8 9 9 12 10 7 9 9 7 7 8 10 4 4 4
6 7 4 7 6 9 3 7 8 3 6 8 10 13 14 15 17 15 12 9 11 12 9 10 10 10 10 11 11 11 10 11 9 8 10 9 8 12 10 8 8 9 8 8 9 9 8 7 4
9 11 10 5 1 6 10 12 7 2 4 8 12 15 15 15 15 14 13 12 10 11 10 7 8 9 11 10 10 10 9 10 10 8 10 7 7 9 10 10 8 10 8 8 8 9 7 7 11
6 12 10 7 12 8 15 11 2 6 3 6 10 10 11 14 16 16 16 12 11 13 8 6 7 9 10 11 8 9 9 8 8 9 9 9 8 6 9 10 9 10 8 6 7 8 11 3 9
4 12 7 5 9 6 7 6 4 1 10 7 11 13 13 13 14 14 13 12 13 11 8 5 8 9 8 10 10 11 10 10 9 10 8 9 8 5 8 9 10 9 7 8 6 7 8 7 3
7 9 6 6 8 10 3 9 6 6 13 12 12 14 13 13 14 13 13 12 12 12 9 5 8 8 11 8 9 9 11 10 10 9 11 10 7 10 9 10 10 8 7 9 9 8 8 6 6
11 11 13 7 8 7 6 5 3 9 11 15 14 14 14 12 12 12 11 11 8 8 10 6 8 10 8 8 9 11 12 12 11 10 9 12 11 8 10 10 9 8 8 9 8 9 9 8 8
11 16 2 6 6 7 4 4 3 8 13 11 13 14 13 11 11 11 12 10 10 9 9 8 6 9 8 8 8 10 12 12 12 11 7 11 9 8 8 10 10 7 8 8 10 9 10 9 8
8 9 5 6 7 10 6 4 5 6 8 5 9 12 11 10 9 11 9 9 9 9 8 7 8 8 8 7 8 9 9 7 8 9 8 6 7 8 9 8 9 10 10 9 8 8 7 10 7
6 5 5 6 8 6 1 4 5 5 11 12 12 12 11 9 9 9 9 7 8 8 7 7 8 9 7 9 8 10 8 7 7 9 6 6 6 7 9 9 9 9 10 7 8 7 9 9 8
5 5 4 3 6 7 4 6 5 10 12 13 14 12 11 10 9 8 7 6 5 5 7 6 6 8 7 7 8 8 9 8 7 7 7 7 8 9 10 7 8 10 11 10 9 8 8 9 7
5 4 3 5 3 6 7 3 2 6 9 12 12 11 10 9 8 7 6 5 3 3 3 4 5 7 8 8 7 6 6 7 8 7 6 5 7 8 7 8 9 10 11 10 7 8 8 10 9
6 6 5 5 3 5 4 8 3 2 7 11 12 9 8 7 7 6 6 4 5 3 4 3 4 6 7 6 5 6 8 7 5 7 7 7 8 8 8 8 9 10 10 11 10 9 8 10 11
Wind_Direction
275 233 243 240 165 44 61 54 40 41 69 70 59 78 88 55 16 50 340 359 342 341 329 345 338 347 358 5 8 12 11 13 14 5 303 242 203 184 164 153 142 140 142 143 145 140 134 126 120
296 257 239 261 180 135 83 78 62 54 118 130 73 107 50 75 32 32 341 340 346 351 353 331 350 352 1 5 7 12 11 13 13 11 7 306 240 194 114 233 138 128 131 139 153 146 136 129 122
254 316 11 13 28 66 106 114 103 115 132 138 117 71 89 31 64 353 3 341 349 3 350 330 355 359 4 5 9 10 10 10 11 12 7 7 327 114 100 53 97 122 60 117 148 141 130 131 126
261 134 65 81 82 71 97 157 125 136 79 98 139 91 106 54 13 351 15 357 358 358 10 350 359 7 3 7 9 9 9 8 10 9 8 360 5 152 141 144 241 121 165 88 147 160 135 133 133
182 68 94 93 88 85 78 72 76 88 70 50 69 86 80 56 56 44 353 6 8 358 8 5 4 6 7 9 8 8 8 8 6 6 7 6 8 11 159 159 217 188 169 175 176 182 156 137 139
122 141 114 103 103 94 69 58 75 80 70 56 90 97 83 84 44 43 6 25 24 11 7 17 2 4 8 10 8 10 8 7 6 4 4 5 3 4 14 24 206 201 170 156 189 173 170 139 146
57 86 102 111 107 82 71 56 39 69 54 44 41 81 93 57 35 37 21 27 32 21 18 10 9 7 355 19 8 13 11 6 6 2 3 360 357 3 3 348 355 254 176 165 196 203 174 153 157
80 108 120 122 106 93 93 76 45 34 64 83 341 31 70 38 13 7 7 21 32 25 15 16 10 6 360 359 8 10 14 11 2 359 2 358 356 358 350 347 341 333 181 178 206 217 177 159 156
173 105 90 89 101 119 119 97 69 69 77 62 62 66 59 33 359 6 6 12 14 20 15 15 12 6 358 354 354 20 15 17 358 1 1 353 357 348 346 335 336 328 203 208 199 179 179 149 150
78 93 69 76 91 109 93 90 106 129 108 100 95 95 63 359 4 3 7 8 11 14 11 6 18 5 359 355 355 353 38 24 13 0 2 355 338 352 338 338 339 340 180 183 184 189 151 160 151
78 94 98 82 78 96 107 97 53 121 110 35 55 56 24 347 6 357 357 12 8 9 18 2 10 7 2 351 355 351 347 352 31 3 8 359 343 355 346 339 339 338 214 203 195 195 194 175 166
93 89 94 92 72 93 63 88 78 17 68 73 60 354 348 345 356 3 355 3 358 7 20 4 6 5 2 348 356 345 344 351 355 18 0 2 349 351 340 344 340 329 337 263 196 191 199 175 179
94 97 98 95 82 67 121 64 97 98 87 96 36 283 331 340 348 347 350 353 357 3 20 8 357 9 0 354 351 342 341 351 335 2 13 359 351 348 346 339 337 326 336 325 291 221 200 156 156
118 113 109 100 99 63 130 110 275 134 188 211 257 298 319 331 334 327 343 345 340 342 13 3 355 10 358 356 348 335 340 340 340 358 360 356 355 351 350 336 334 335 350 327 309 296 187 158 157
130 118 127 96 79 106 330 185 177 127 197 256 278 285 297 298 288 315 331 321 317 321 12 350 355 5 355 352 344 335 335 330 335 345 9 358 350 357 335 336 334 342 332 312 304 281 234 165 176
176 219 205 91 217 117 255 87 128 172 210 261 282 284 289 293 302 295 309 301 301 321 354 335 359 350 352 344 338 335 334 322 331 341 11 355 350 346 346 330 336 335 325 313 306 284 204 184 178
162 35 22 147 90 310 253 350 124 190 244 284 298 292 290 290 289 290 293 286 305 316 323 315 342 349 352 333 333 330 331 322 328 330 345 12 341 351 348 329 333 330 319 320 309 297 264 179 182
7 360 4 33 74 311 276 270 160 201 245 283 307 303 295 295 293 291 286 291 303 303 309 320 330 348 339 325 328 331 329 328 324 327 359 354 350 340 343 338 338 332 330 331 333 317 228 179 178
16 349 342 39 48 308 266 279 283 264 223 280 309 332 327 325 326 314 290 259 275 276 296 307 324 334 334 330 337 331 335 324 320 323 340 338 15 338 342 352 329 334 330 325 326 309 263 180 150
7 358 15 118 47 290 315 306 291 294 287 313 322 314 313 304 312 314 301 302 272 279 277 269 299 346 333 336 332 320 333 318 316 320 319 342 4 352 341 343 340 328 323 322 336 336 297 220 169
80 6 357 338 325 254 300 230 130 120 289 273 275 310 308 327 332 328 331 324 300 297 291 292 311 332 338 330 326 325 323 321 326 332 317 350 342 10 342 346 340 332 323 327 338 316 330 258 181
340 6 331 301 304 4 11 343 154 227 295 4 1 345 331 337 332 334 335 326 324 319 331 339 332 323 328 332 332 329 313 327 331 308 325 313 341 22 9 341 346 329 337 334 330 341 310 308 302
22 345 316 295 280 303 100 281 58 191 353 341 349 348 342 341 343 334 338 337 335 324 316 20 327 316 346 320 333 325 328 326 321 318 332 319 327 54 2 342 351 353 334 331 333 340 331 322 281
295 257 219 251 257 230 48 328 5 2 330 347 357 342 343 350 332 344 343 332 319 322 336 21 311 341 316 333 328 320 325 323 321 330 344 343 351 0 350 348 343 356 333 336 329 342 323 314 301
329 327 125 228 207 21 31 271 308 330 350 336 334 333 348 334 353 338 348 350 341 343 336 337 348 328 326 327 328 324 323 321 315 344 3 339 330 346 322 346 336 356 336 338 338 341 331 309 321
339 340 18 303 339 328 163 267 334 308 321 346 325 350 336 350 353 341 355 349 347 346 340 351 333 321 319 332 329 325 325 327 333 339 358 320 325 315 348 328 340 346 344 350 339 349 327 326 304
8 19 4 277 240 262 77 172 238 235 2 360 351 354 347 347 347 351 352 9 343 344 345 360 342 323 339 344 331 322 329 326 332 328 327 335 330 330 317 336 347 346 356 351 339 353 310 328 322
318 352 239 206 320 316 8 273 329 359 353 351 352 356 347 350 352 354 345 7 350 342 333 357 341 328 337 332 330 338 340 340 334 328 354 358 329 326 332 358 357 358 1 356 5 334 330 344 333
180 193 242 265 280 313 315 356 281 344 351 351 342 350 339 347 351 342 335 357 341 322 312 337 341 337 349 344 351 354 337 331 335 342 5 358 329 336 359 7 13 14 3 6 355 339 9 7 5
293 284 263 294 70 256 274 277 151 320 352 334 344 344 342 330 345 337 329 334 305 321 315 350 350 336 2 338 356 360 344 351 344 358 14 355 354 352 2 24 22 17 9 6 360 1 13 17 26